Torna al catalogo

STARLINK-5588

AttivoComunicazioniVLEO
NORAD 55375·PAYLOAD·🇺🇸 United States

Lanciato Jan 26, 2023 da Cape Canaveral Space Force Station

Loading…

Prossimi Passaggi (prossime 24 ore)

TLE

AggiornatoSource: CelesTrak SupGP

Epoca: Sep 15, 2026, 01:33 UTC

1 55375C 23013AW  26258.06506944  .00021713  00000+0  78654-3 0  2585
2 55375  43.0027 332.0082 0001408 263.9173 183.9069 15.27563965    11

Traccia STARLINK-5588 in tempo reale con AllMySat

Download on the App Store